Flag for U.S.A. Weather past 2 weeks in Cincinnati, Ohio, U.S.A.

Now
32 °F

Clear.


Feels Like: 24 °F
Forecast: 32 / 46 °F
Wind: 10 mph from South

Location: Cincinnati Municipal Airport Lunken Field

Current Time: Jan 29, 2015 at 4:31:04 AM

Latest Report: Jan 29, 2015 at 3:53 AM


Visibility: 10 mi

Pressure: 30.05 "Hg

Humidity: 64%

Dew point: 21 °F

Location of CincinnatiLocation

Historic Weather in Cincinnati — Graph

°F

Cincinnati temperature yesterday

Maximum temperature yesterday: 35 °F (at 3:53 PM)
Minimum temperature yesterday: 12 °F (at 5:53 AM)
Average temperature yesterday: 24 °F

Past Weeks' High & Low Weather Summary

 TemperatureHumidityPressure
High54 °F (Jan 20, 3:53 PM)100% (Jan 19, 5:58 AM)30.47 "Hg (Jan 19, 5:58 AM)
Low12 °F (Jan 28, 5:53 AM)31% (Jan 15, 1:53 PM)29.68 "Hg (Jan 25, 3:53 PM)
Average32 °F74%30.08 "Hg
* Reported Jan 14 2:53 AM — Jan 29 2:53 AM, Cincinnati, Weather by CustomWeather, © 2014

Note: Actual official high and low records may vary slightly from our data, if they occured in-between our weather recording intervals... More about our weather records

Advertising

Cincinnati weather history for previous 24 hours

 ConditionsComfort  
Time TempWeatherWind HumidityBarometerVisibility
2:53 AM
Jan 29
32 °FClear.7 mph61%30.10 "Hg10 mi
1:53 AM32 °FClear.5 mph61%30.12 "Hg10 mi
12:53 AM30 °FClear.6 mph64%30.16 "Hg10 mi
11:53 PM
Jan 28
31 °FClear.No wind61%30.17 "Hg10 mi
10:53 PM31 °FClear.9 mph61%30.19 "Hg10 mi
9:53 PM30 °FClear.3 mph66%30.24 "Hg10 mi
8:53 PM30 °FClear.No wind64%30.25 "Hg10 mi
7:53 PM31 °FClear.3 mph61%30.29 "Hg10 mi
6:53 PM31 °FClear.6 mph59%30.29 "Hg10 mi
5:53 PM32 °FClear.3 mph56%30.30 "Hg10 mi
4:53 PM34 °FSunny.7 mph52%30.30 "Hg10 mi
3:53 PM35 °FSunny.9 mph50%30.30 "Hg10 mi
2:53 PM34 °FSunny.10 mph52%30.32 "Hg10 mi
1:53 PM33 °FSunny.9 mph52%30.35 "Hg10 mi
12:53 PM30 °FSunny.7 mph56%30.40 "Hg10 mi
11:53 AM27 °FSunny.3 mph66%30.42 "Hg10 mi
10:53 AM25 °FSunny.6 mph78%30.44 "Hg4 mi
9:53 AM19 °FIce fog.No wind92%30.45 "Hg3 mi
8:53 AM16 °FIce fog.6 mph87%30.42 "Hg3 mi
7:53 AM12 °FIce fog.6 mph88%30.42 "Hg3 mi
6:53 AM12 °FIce fog.3 mph92%30.41 "Hg4 mi
5:53 AM12 °FIce fog.No wind92%30.38 "Hg4 mi
4:53 AM13 °FIce fog.No wind88%30.36 "Hg4 mi
Weather by CustomWeather, © 2014

See weather overviewHow to use our weather pages